[[{"header":{"parameterUnit":"m.s-1","parameterCategory":1,"la1":30.2991,"la2":30.254,"lo1":-89.0895,"lo2":-89.0444,"dy":0.0017,"dx":0.0017,"nx":28,"ny":28,"refTime":"2023-08-01T21:00:00:Z","depth":0,"parameterNumber":2,"parameterNumberName":"U-component_of_WINDS"},"data":[0,0,0,0,0,0,0,0,0,0,0,0,0,0,0,0,0,0,0,0,0,0,0,0,0,0,0,0,0,0,0,0,0,0,0,0,0,0,0,0,0,0,0,0,0,0,0,0,0,0,0,0,0,0,0,0,0,0,1.976,1.9761,0,1.9845,1.9846,1.9847,1.9855,1.9854,1.9853,1.9852,1.9944,1.9948,1.9951,0,0,0,0,0,0,0,0,0,0,0,0,0,1.9607,1.961,1.976,1.9761,1.9762,1.9845,1.9846,1.9847,1.9855,1.9854,1.9853,1.9852,1.9943,1.9947,1.9951,0,0,0,0,0,0,0,0,0,0,0,0,0,1.9681,1.9611,1.976,1.9776,1.9778,1.9845,1.9846,1.9848,1.9855,1.9854,1.9852,1.9851,1.9942,1.9947,1.9952,2.001,0,0,1.9967,1.9969,0,0,0,0,0,0,0,0,1.9677,1.9687,1.9772,1.9775,1.9777,1.9838,1.9826,1.9902,1.9856,1.9826,1.9852,1.9851,1.991,1.9918,1.9937,2.0014,2.0018,1.9967,1.997,1.9972,1.9974,0,0,0,0,0,0,0,1.9672,1.9683,1.9794,1.9773,1.9777,1.978,1.9789,1.9841,1.9875,1.9828,1.9829,1.9839,1.9911,1.9932,1.9939,2.002,1.9967,1.9972,1.9975,1.9977,2.0149,2.0151,0,0,0,0,0,0,1.9663,1.9679,1.9791,1.9796,1.9723,1.9784,1.9794,1.982,1.9874,1.9881,1.984,1.9839,1.9924,1.9933,1.9942,2.0015,1.9972,1.9977,1.998,2.0148,2.015,2.0152,0,0,0,0,0,0,1.966,1.9673,1.9788,1.9738,1.9753,1.9788,1.9817,1.9822,1.9843,1.9883,1.989,1.9855,1.9924,1.9936,1.9993,2.0018,1.9979,1.9984,2.0146,2.0148,2.0151,2.0159,0,0,0,0,0,0,1.9655,1.9672,1.9693,1.9738,1.9755,1.9835,1.9819,1.9825,1.9851,1.985,1.9899,1.9905,1.9923,1.9985,1.9998,2.0024,1.9988,2.0144,2.0147,2.015,2.0157,2.0161,2.0165,0,0,0,0,0,1.965,1.9693,1.9694,1.9708,1.9783,1.9837,1.9847,1.9865,1.9853,1.9876,1.9901,1.9904,2.0013,1.9991,2.0005,2.0033,2.0142,2.0146,2.015,2.0155,2.016,2.0165,0,0,0,0,0,0,1.9652,1.9699,1.9701,1.976,1.9794,1.9838,1.9867,1.9871,1.991,1.9908,1.9931,1.9942,1.9999,2.0022,1.9997,2.0093,2.0077,2.0083,2.0076,2.0081,2.0086,2.0079,1.9992,0,0,0,0,0,1.9659,1.9697,1.9737,1.9785,1.9802,1.9831,1.9856,1.9867,1.9904,1.9919,1.9949,1.9986,2.0028,2.0056,2.0098,2.016,2.0171,2.0186,2.019,2.0194,2.02,2.0235,2.0242,2.0163,2.0163,2.0163,0,0,1.9675,1.9705,1.9728,1.9787,1.9814,1.9855,1.9844,1.9887,1.9918,1.9926,1.9982,2.0005,2.0048,2.0108,2.0136,2.0129,2.0223,2.0198,2.0201,2.0205,2.0239,2.0246,2.0253,2.0166,2.0165,2.0165,0,0,1.9723,1.975,1.9793,1.9821,1.9862,1.9881,1.9892,1.9935,1.995,2.0006,2.0013,2.005,2.0123,2.0153,2.0178,2.0238,2.0242,2.0251,2.0274,2.0308,2.0314,2.032,2.0342,2.0349,2.0257,2.0257,2.0257,0,1.9738,1.9798,1.9815,1.9858,1.9884,1.9891,1.9936,1.9962,2.0016,2.0034,2.0025,2.0117,2.0146,2.0213,2.0228,2.0247,2.0261,2.0246,2.0312,2.0318,2.0323,2.0344,2.0352,2.0257,2.0257,2.0257,2.0257,0,1.9814,1.9855,1.9885,1.9935,1.9964,2.0008,2.0033,2.0061,2.007,2.009,2.0147,2.0182,2.0231,2.0248,2.0258,2.0317,2.0311,2.0307,2.0291,2.0331,2.0351,2.0359,2.0259,2.0258,2.0258,2.0258,0,0,1.9867,1.9925,1.9936,1.9958,2.0005,2.0038,2.0082,2.0128,2.0152,2.0189,2.0227,2.0288,2.0284,2.0313,2.0326,2.0355,2.0401,2.0347,2.0349,2.0356,2.0469,2.0472,2.0481,2.0403,2.0405,2.0406,2.0465,0,1.9921,1.9998,2.0015,2.0083,2.0122,2.0129,2.0168,2.0202,2.0222,2.0259,2.0282,2.0325,2.0316,2.0333,2.0363,2.0389,2.0424,2.0385,2.0441,2.0442,2.043,2.0491,2.0495,2.0549,2.0473,2.0475,2.0476,0,1.9995,2.0032,2.0103,2.0143,2.0161,2.0195,2.0239,2.0274,2.0312,2.0325,2.0356,2.0366,2.0413,2.0395,2.0461,2.0434,2.0458,2.0474,2.0477,2.0483,2.0462,2.05,2.0567,2.0575,2.0488,2.0487,2.0486,0,2.0027,2.0094,2.0145,2.0165,2.0214,2.0238,2.026,2.0296,2.0323,2.0361,2.0379,2.0423,2.0448,2.0482,2.0504,2.0489,2.0569,2.0552,2.0582,2.0582,2.0599,2.0598,2.0671,2.0614,2.0614,2.0614,2.0613,0,2.0086,2.0129,2.016,2.0192,2.0241,2.026,2.0309,2.0331,2.0363,2.04,2.041,2.0444,2.0471,2.051,2.0527,2.058,2.0591,2.0603,2.0608,2.0603,2.0601,2.0619,2.0616,2.0616,2.0615,2.0615,2.0614,0,2.013,2.0153,2.0209,2.025,2.0262,2.0296,2.0332,2.0364,2.0384,2.043,2.0442,2.0474,2.052,2.0545,2.0604,2.0615,2.0674,2.0677,2.0661,2.0663,2.0691,2.0688,2.0779,2.0792,2.0725,2.0726,2.0727,0,2.0167,2.02,2.0244,2.0269,2.0291,2.033,2.0357,2.0378,2.0406,2.0451,2.0478,2.0524,2.0562,2.0635,2.0665,2.0709,2.0713,2.0741,2.072,2.0713,2.0714,2.0711,2.0715,2.0745,2.0746,2.0746,2.0747,0,2.0229,2.0238,2.0276,2.0317,2.0349,2.0383,2.0417,2.0437,2.0463,2.0494,2.054,2.057,2.0628,2.0674,2.0721,2.0745,2.0751,2.0753,2.0763,2.0758,2.0748,2.0754,2.0672,2.0751,2.0751,2.075,2.075,2.075,2.0271,2.0301,2.0336,2.0378,2.0405,2.0437,2.0468,2.0492,2.053,2.0578,2.0588,2.0637,2.0675,2.0738,2.0763,2.0803,2.0797,2.0811,2.0814,2.0817,2.0818,2.0741,2.0812,2.0811,2.0811,2.0811,2.0811,0,2.0334,2.0357,2.0395,2.0441,2.0474,2.0475,2.0513,2.0541,2.0583,2.0617,2.0654,2.0707,2.0752,2.0784,2.083,2.0855,2.0859,2.0867,2.0865,2.0871,2.0821,2.0808,2.0863,2.0863,2.0863,2.0863,2.0863,2.0863,2.0371,2.0421,2.0435,2.0499,2.0522,2.0569,2.0591,2.062,2.0647,2.0706,2.0742,2.0762,2.0796,2.0844,2.0885,2.0894,2.0911,2.0918,2.0927,2.088,2.0874,2.0869,2.0857,2.0921,2.0921,2.0973,2.0974,2.0974]},{"header":{"parameterUnit":"m.s-1","parameterCategory":1,"la1":30.2991,"la2":30.254,"lo1":-89.0895,"lo2":-89.0444,"dy":0.0017,"dx":0.0017,"nx":28,"ny":28,"refTime":"2023-08-01T21:00:00:Z","depth":0,"parameterNumber":3,"parameterNumberName":"V-component_of_WINDS"},"data":[0,0,0,0,0,0,0,0,0,0,0,0,0,0,0,0,0,0,0,0,0,0,0,0,0,0,0,0,0,0,0,0,0,0,0,0,0,0,0,0,0,0,0,0,0,0,0,0,0,0,0,0,0,0,0,0,0,0,3.0269,3.0269,0,3.0258,3.0257,3.0257,3.0274,3.0275,3.0275,3.0276,3.0261,3.0261,3.026,0,0,0,0,0,0,0,0,0,0,0,0,0,3.0301,3.03,3.0269,3.0269,3.0269,3.0258,3.0257,3.0257,3.0274,3.0275,3.0275,3.0276,3.0262,3.0261,3.0259,0,0,0,0,0,0,0,0,0,0,0,0,0,3.0288,3.03,3.0269,3.0276,3.0276,3.0258,3.0257,3.0257,3.0274,3.0275,3.0276,3.0277,3.0262,3.0261,3.0259,3.0233,0,0,3.0255,3.0254,0,0,0,0,0,0,0,0,3.0289,3.0287,3.0275,3.0275,3.0276,3.0268,3.0263,3.0249,3.0274,3.0275,3.0276,3.0277,3.0263,3.0261,3.0257,3.0232,3.0231,3.0255,3.0254,3.0253,3.0253,0,0,0,0,0,0,0,3.0289,3.0287,3.0264,3.0275,3.0275,3.0278,3.0277,3.0261,3.0264,3.0275,3.0276,3.0274,3.0263,3.0259,3.0257,3.0231,3.0255,3.0254,3.0253,3.0252,3.018,3.0179,0,0,0,0,0,0,3.029,3.0288,3.0265,3.0264,3.0285,3.0277,3.0276,3.027,3.0264,3.0264,3.0274,3.0275,3.026,3.0259,3.0257,3.0222,3.0253,3.0252,3.0251,3.0181,3.018,3.0178,0,0,0,0,0,0,3.0291,3.0288,3.0265,3.0276,3.0274,3.0275,3.0268,3.0269,3.0264,3.0263,3.0264,3.0269,3.0261,3.0259,3.0238,3.0222,3.0251,3.025,3.0182,3.018,3.0179,3.0155,0,0,0,0,0,0,3.0291,3.0288,3.0279,3.0276,3.0273,3.0248,3.0267,3.0268,3.0262,3.0264,3.0259,3.0258,3.0262,3.024,3.0236,3.0221,3.0249,3.0184,3.0181,3.0179,3.0157,3.0153,3.0149,0,0,0,0,0,3.0293,3.0273,3.0278,3.0275,3.0262,3.0247,3.0245,3.025,3.0261,3.0251,3.025,3.0259,3.0225,3.0238,3.0234,3.0218,3.0184,3.0182,3.018,3.0159,3.0154,3.0149,0,0,0,0,0,0,3.0273,3.0273,3.0279,3.0258,3.0252,3.025,3.0238,3.0245,3.0235,3.0237,3.0243,3.0242,3.0219,3.0217,3.0231,3.019,3.0206,3.0203,3.0192,3.0187,3.0183,3.0183,3.0248,0,0,0,0,0,3.0267,3.0256,3.0256,3.0237,3.0234,3.0236,3.023,3.0234,3.0228,3.0226,3.0223,3.0216,3.0204,3.0196,3.0184,3.0158,3.0155,3.0144,3.014,3.0137,3.0133,3.0116,3.011,3.017,3.017,3.0171,0,0,3.0253,3.0251,3.0244,3.0233,3.0229,3.0216,3.0234,3.022,3.021,3.0223,3.0203,3.0201,3.0194,3.0169,3.0158,3.0166,3.0116,3.0134,3.0131,3.0129,3.0113,3.0107,3.0102,3.0169,3.0169,3.0169,0,0,3.022,3.0219,3.0202,3.0198,3.0192,3.0193,3.0189,3.0185,3.0184,3.0165,3.0174,3.0161,3.014,3.0133,3.0127,3.009,3.0096,3.0086,3.0064,3.0047,3.0042,3.0038,3.0022,3.0016,3.0083,3.0083,3.0083,0,3.0203,3.0185,3.0192,3.0177,3.017,3.0183,3.0164,3.0159,3.015,3.0144,3.0154,3.0126,3.0122,3.0095,3.0085,3.0081,3.0074,3.0086,3.0043,3.0038,3.0034,3.0019,3.0013,3.0082,3.0082,3.0082,3.0082,0,3.0163,3.015,3.0137,3.0127,3.012,3.0103,3.0105,3.0097,3.0101,3.0101,3.0079,3.0074,3.0061,3.0055,3.0059,3.0027,3.0032,3.0042,3.0058,3.0027,3.0012,3.0007,3.008,3.008,3.008,3.0081,0,0,3.0117,3.0111,3.0106,3.0101,3.0095,3.0084,3.0067,3.0054,3.0045,3.0038,3.0022,3.0003,3.0012,3.0005,3.0008,2.9993,2.996,3.0005,3.0005,2.9994,2.992,2.9911,2.9904,2.9965,2.9964,2.9963,2.992,0,3.0082,3.0054,3.0059,3.003,3.0016,3.0027,3.0012,3.0005,3.0004,2.9991,2.9989,2.9975,2.9989,2.9984,2.997,2.9967,2.9945,2.9971,2.9947,2.9946,2.9947,2.9897,2.9888,2.9847,2.9915,2.9914,2.9913,0,3.0038,3.0029,2.9999,2.9993,2.9987,2.9974,2.9961,2.995,2.9941,2.9941,2.9933,2.9938,2.9918,2.9936,2.9907,2.9924,2.9915,2.9912,2.991,2.9907,2.9926,2.9889,2.9835,2.9828,2.9905,2.9905,2.9906,0,3.0004,2.9985,2.9964,2.9959,2.9953,2.9942,2.9938,2.9931,2.9923,2.9911,2.9905,2.9892,2.9883,2.9872,2.9872,2.9886,2.9841,2.986,2.9838,2.9838,2.9827,2.9827,2.9768,2.9825,2.9825,2.9826,2.9826,0,2.9964,2.9944,2.9948,2.9935,2.9912,2.9918,2.9895,2.9892,2.9885,2.987,2.9879,2.9864,2.9867,2.9851,2.9851,2.9825,2.9822,2.982,2.9819,2.9818,2.9817,2.981,2.9812,2.9824,2.9824,2.9825,2.9825,0,2.9922,2.9924,2.9901,2.9896,2.9895,2.9878,2.9873,2.9859,2.9858,2.9839,2.9834,2.9832,2.9814,2.9814,2.9794,2.9793,2.9761,2.9765,2.9763,2.9763,2.974,2.9741,2.9672,2.9661,2.9728,2.9728,2.9727,0,2.9895,2.988,2.9873,2.9864,2.986,2.9845,2.9836,2.984,2.983,2.9818,2.9805,2.9788,2.9774,2.9744,2.9739,2.9723,2.9725,2.9702,2.9722,2.972,2.9721,2.9721,2.9718,2.9697,2.9696,2.9696,2.9695,0,2.9845,2.9847,2.9834,2.9821,2.981,2.98,2.9791,2.9782,2.9785,2.9773,2.9755,2.9744,2.9722,2.9704,2.9687,2.9681,2.9687,2.9689,2.9682,2.9679,2.9677,2.9675,2.9749,2.969,2.969,2.9691,2.9691,2.9691,2.9808,2.9794,2.9787,2.9771,2.9765,2.9756,2.9742,2.9739,2.9725,2.9708,2.9711,2.9689,2.9679,2.9657,2.965,2.9631,2.9639,2.9631,2.9628,2.9625,2.9621,2.9682,2.9629,2.9629,2.9629,2.9629,2.9629,0,2.9756,2.9752,2.9738,2.9725,2.9712,2.9721,2.971,2.9698,2.968,2.967,2.9657,2.9634,2.9615,2.9609,2.9591,2.9577,2.9579,2.9572,2.9571,2.9569,2.9617,2.9623,2.957,2.957,2.957,2.957,2.957,2.957,2.9727,2.9704,2.9704,2.9676,2.9672,2.9652,2.9644,2.9635,2.9627,2.9601,2.9586,2.9583,2.9574,2.9554,2.9536,2.9535,2.9526,2.9517,2.9516,2.956,2.9566,2.9572,2.9577,2.9516,2.9516,2.947,2.9469,2.9469]}]]